Weather Roundup
Issued by NWS Chicago, IL

Home | Current Version | Previous Version | Text Only | Print | Product List | Glossary Off
Versions: 1 2 3 4 5 6 7 8 9 10 11 12 13 14 15 16 17 18 19 20 21 22 23 24 25 26 27 28 29 30 31 32 33 34 35 36 37 38 39 40 41 42 43 44 45 46 47 48 49 50

000
NZUS59 KLOT 211108
HRRLOT

CHICAGO AREA WEATHER ROUNDUP
NATIONAL WEATHER SERVICE CHICAGO/ROMEOVILLE IL
500 AM CST SAT JAN 21 2017

NOTE: "FAIR" INDICATES FEW OR NO CLOUDS BELOW 12,000 FEET WITH NO
SIGNIFICANT WEATHER AND/OR OBSTRUCTIONS TO VISIBILITY.

* THESE STATIONS ARE NOT UNDER NWS QUALITY CONTROL. THEY ALSO MAY NOT
  REPORT WEATHER SUCH AS PRECIPITATION OR FOG.

ILZ005-006-012>014-019>023-211200-
NORTHEAST ILLINOIS

CITY           SKY/WX    TMP DP  RH WIND       PRES   REMARKS
OHARE          CLOUDY    47  46  97 S8        29.53S FOG
MIDWAY         CLOUDY    48  47  96 S6G18     29.55F FOG
AURORA         CLOUDY    48  47  96 S10       29.52F FOG
LANSING*       CLOUDY    48  48 100 S8        29.56F
JOLIET*        CLOUDY    49  48  99 SE3       29.54S FOG
WAUKEGAN       FOG       40  40 100 SE3       29.53S VSB 1/4
DUPAGE AIRPORT CLOUDY    49  46  90 S13       29.52S FOG
WHEELING       CLOUDY    47  46  97 SE7       29.54F FOG
KANKAKEE*      CLEAR     48  48  97 S8        29.56F
MORRIS*        FOG       44  43  97 S5        29.52S VSB 1/2
NORTHERLY ISL    N/A     37  36  96 CALM        N/A
$$

WIZ051-052-058>065-066-070>072-211200-
SOUTHEAST WISCONSIN

CITY           SKY/WX    TMP DP  RH WIND       PRES   REMARKS
MILWAUKEE      FOG       39  38  96 W6        29.55F VSB 1/8
KENOSHA*       FOG       41  40  96 SE3       29.54F VSB 1/2
RACINE*        FOG       41  39  93 SE5       29.56F VSB 1/4
WEST BEND      LGT RAIN  36  36 100 CALM      29.56S VSB 1/4
$$

INZ001>003-010>013-019-020-211200-
NORTHWEST INDIANA

CITY           SKY/WX    TMP DP  RH WIND       PRES   REMARKS
GARY*          CLOUDY    50  48  93 SE7       29.57F FOG
MICHIGAN CITY* NOT AVBL
RENSSELAER*    NOT AVBL
VALPARAISO     CLOUDY    50  49  96 S8        29.60R FOG
$$

LMZ740>746-211200-
SOUTHERN LAKE MICHIGAN

STATION/POSITION TIME  SKY/WX   TEMP WIND        PRES    VSBY
                                AIR  DIR/SP/G
                 (UTC)          (F)  (DEG/KT/KT) (MB)    (MI)
HARRISON CRIB    1040            42  170/ 11/ 11   N/A
BURNHAM HARBOR   1100            37   40/  1/  4   N/A
CALUMET HARBOR   1042            48  160/  6/  9 1000.4F
BURNS HARBOR     1040            51  160/ 10/ 16 1002.0F
MICHIGAN CITY    NOT AVBL
$$

ABBREVIATIONS USED IN REMARKS
   TC - TEMPERATURE IN CELSIUS
  WCI - WIND CHILL INDEX
   HX - HEAT INDEX
  VSB - VISIBILITY
$$




USA.gov is the U.S. government's official web portal to all federal, state and local government web resources and services.